Victory — E5U2349 — position and weather

sailwx.info

Track history (hours):
 
Tides and Currents Weather Stations Pressure Air Temp Water Temp Dewpoint Dewpoint Depression Visibility Wind Speed Wind Dir Waves Ship Positions

Victory

Last reported at 2014-Oct-25 03:04 UTC. Time now 2014-Oct-25 09:39 UTC.
Position N 44°25' E 008°50'.

Length 51 m; draft 3 m.

Type: Pleasure craft. MMSI: 518399000.

Date/timePositionNaut miles runAvg speedWind from/ knotsBaromVisibWave heightAir tempDewpointWater temp
2014-Oct-25 03:04N 44°25' E 008°50'0 0.0
2014-Oct-25 02:28N 44°25' E 008°50'0 0.0
2014-Oct-25 01:04N 44°25' E 008°50'0 0.0
2014-Oct-25 00:04N 44°25' E 008°50'0 0.0
2014-Oct-24 19:28N 44°25' E 008°50'0 0.0
2014-Oct-24 11:10N 44°25' E 008°50'0 0.0
2014-Oct-24 03:16N 44°25' E 008°50'0 0.0
2014-Oct-24 02:28N 44°25' E 008°50'0 0.0
2014-Oct-24 01:16N 44°25' E 008°50'0 0.0
2014-Oct-23 03:22N 44°25' E 008°50'0 0.0
2014-Oct-23 01:28N 44°25' E 008°50'0 0.0
2014-Oct-22 16:16N 44°25' E 008°50'0 0.0
2014-Oct-22 11:04N 44°25' E 008°50'0 0.0
2014-Oct-22 04:04N 44°25' E 008°50'0 0.0
2014-Oct-21 23:22N 44°25' E 008°50'0 0.0
2014-Oct-21 03:28N 44°25' E 008°50'0 0.0
2014-Oct-21 01:28N 44°25' E 008°50'0 0.0
2014-Oct-21 00:16N 44°25' E 008°50'0 0.0
2014-Oct-20 22:22N 44°25' E 008°50'0 0.0
2014-Oct-20 19:22N 44°25' E 008°50'0 0.0
2014-Oct-20 15:28N 44°25' E 008°50'0 0.0
2014-Oct-20 10:22N 44°25' E 008°50'0 0.0
2014-Oct-20 08:04N 44°25' E 008°50'0 0.1
2014-Oct-20 06:04N 44°25' E 008°50'0 0.0
2014-Oct-20 04:03N 44°25' E 008°50'0 0.0
2014-Oct-20 03:33N 44°25' E 008°50'0 0.0
2014-Oct-20 02:33N 44°25' E 008°50'0 0.0
2014-Oct-20 01:32N 44°25' E 008°50'0 0.0
2014-Oct-20 00:33N 44°25' E 008°50'0 0.0
2014-Oct-19 23:33N 44°25' E 008°50'0 0.0
2014-Oct-19 22:31N 44°25' E 008°50'0 0.0
2014-Oct-19 20:05N 44°25' E 008°50'4 8.1
2014-Oct-19 19:33N 44°21' E 008°47'1514.6
2014-Oct-19 18:33N 44°08' E 008°54'1514.8
2014-Oct-19 17:33N 43°54' E 009°01'1514.6
2014-Oct-19 16:33N 43°40' E 009°08'1514.7
2014-Oct-19 15:33N 43°26' E 009°15'1514.4
2014-Oct-19 14:32N 43°12' E 009°21'1514.7
2014-Oct-19 13:32N 42°59' E 009°29'217 9.7
2014-Oct-18 15:08N 39°22' E 009°39'4114.2
2014-Oct-18 12:13N 38°41' E 009°42'1014.1
2014-Oct-18 11:33N 38°32' E 009°44'1414.0
2014-Oct-18 10:33N 38°18' E 009°46'1413.9
2014-Oct-18 09:33N 38°04' E 009°49'4814.1
2014-Oct-18 06:11N 37°16' E 009°54'1 0.0
2014-Oct-17 12:33N 37°17' E 009°53'1 1.2
2014-Oct-17 11:18N 37°17' E 009°54'1114.2
2014-Oct-17 10:33N 37°28' E 009°56'3014.6
2014-Oct-17 08:31N 37°57' E 009°50'2014.3
2014-Oct-17 07:09N 38°17' E 009°47'914.1
2014-Oct-17 06:30N 38°26' E 009°45'273 7.3
2014-Oct-15 17:09N 42°58' E 009°31'914.3
2014-Oct-15 16:33N 43°06' E 009°27'1414.3
2014-Oct-15 15:33N 43°19' E 009°18'1414.4
2014-Oct-15 14:33N 43°32' E 009°09'1414.4
2014-Oct-15 13:33N 43°44' E 008°59'1414.4
2014-Oct-15 12:33N 43°57' E 008°50'1414.4
2014-Oct-15 11:33N 44°10' E 008°40'12 1.6
2014-Oct-15 04:05N 44°19' E 008°29'0 0.0
2014-Oct-15 03:08N 44°19' E 008°29'  
Track history (hours):
 
Tides and Currents Weather Stations Pressure Air Temp Water Temp Dewpoint Dewpoint Depression Visibility Wind Speed Wind Dir Waves Ship Positions

Victory

Last reported at 2014-Oct-25 03:04 UTC. Time now 2014-Oct-25 09:39 UTC.
Position N 44°25' E 008°50'.

Length 51 m; draft 3 m.

Type: Pleasure craft. MMSI: 518399000.

Date/timePositionNaut miles runAvg speedWind from/ knotsBaromVisibWave heightAir tempDewpointWater temp
2014-Oct-25 03:04N 44°25' E 008°50'0 0.0
2014-Oct-25 02:28N 44°25' E 008°50'0 0.0
2014-Oct-25 01:04N 44°25' E 008°50'0 0.0
2014-Oct-25 00:04N 44°25' E 008°50'0 0.0
2014-Oct-24 19:28N 44°25' E 008°50'0 0.0
2014-Oct-24 11:10N 44°25' E 008°50'0 0.0
2014-Oct-24 03:16N 44°25' E 008°50'0 0.0
2014-Oct-24 02:28N 44°25' E 008°50'0 0.0
2014-Oct-24 01:16N 44°25' E 008°50'0 0.0
2014-Oct-23 03:22N 44°25' E 008°50'0 0.0
2014-Oct-23 01:28N 44°25' E 008°50'0 0.0
2014-Oct-22 16:16N 44°25' E 008°50'0 0.0
2014-Oct-22 11:04N 44°25' E 008°50'0 0.0
2014-Oct-22 04:04N 44°25' E 008°50'0 0.0
2014-Oct-21 23:22N 44°25' E 008°50'0 0.0
2014-Oct-21 03:28N 44°25' E 008°50'0 0.0
2014-Oct-21 01:28N 44°25' E 008°50'0 0.0
2014-Oct-21 00:16N 44°25' E 008°50'0 0.0
2014-Oct-20 22:22N 44°25' E 008°50'0 0.0
2014-Oct-20 19:22N 44°25' E 008°50'0 0.0
2014-Oct-20 15:28N 44°25' E 008°50'0 0.0
2014-Oct-20 10:22N 44°25' E 008°50'0 0.0
2014-Oct-20 08:04N 44°25' E 008°50'0 0.1
2014-Oct-20 06:04N 44°25' E 008°50'0 0.0
2014-Oct-20 04:03N 44°25' E 008°50'0 0.0
2014-Oct-20 03:33N 44°25' E 008°50'0 0.0
2014-Oct-20 02:33N 44°25' E 008°50'0 0.0
2014-Oct-20 01:32N 44°25' E 008°50'0 0.0
2014-Oct-20 00:33N 44°25' E 008°50'0 0.0
2014-Oct-19 23:33N 44°25' E 008°50'0 0.0
2014-Oct-19 22:31N 44°25' E 008°50'0 0.0
2014-Oct-19 20:05N 44°25' E 008°50'4 8.1
2014-Oct-19 19:33N 44°21' E 008°47'1514.6
2014-Oct-19 18:33N 44°08' E 008°54'1514.8
2014-Oct-19 17:33N 43°54' E 009°01'1514.6
2014-Oct-19 16:33N 43°40' E 009°08'1514.7
2014-Oct-19 15:33N 43°26' E 009°15'1514.4
2014-Oct-19 14:32N 43°12' E 009°21'1514.7
2014-Oct-19 13:32N 42°59' E 009°29'217 9.7
2014-Oct-18 15:08N 39°22' E 009°39'4114.2
2014-Oct-18 12:13N 38°41' E 009°42'1014.1
2014-Oct-18 11:33N 38°32' E 009°44'1414.0
2014-Oct-18 10:33N 38°18' E 009°46'1413.9
2014-Oct-18 09:33N 38°04' E 009°49'4814.1
2014-Oct-18 06:11N 37°16' E 009°54'1 0.0
2014-Oct-17 12:33N 37°17' E 009°53'1 1.2
2014-Oct-17 11:18N 37°17' E 009°54'1114.2
2014-Oct-17 10:33N 37°28' E 009°56'3014.6
2014-Oct-17 08:31N 37°57' E 009°50'2014.3
2014-Oct-17 07:09N 38°17' E 009°47'914.1
2014-Oct-17 06:30N 38°26' E 009°45'273 7.3
2014-Oct-15 17:09N 42°58' E 009°31'914.3
2014-Oct-15 16:33N 43°06' E 009°27'1414.3
2014-Oct-15 15:33N 43°19' E 009°18'1414.4
2014-Oct-15 14:33N 43°32' E 009°09'1414.4
2014-Oct-15 13:33N 43°44' E 008°59'1414.4
2014-Oct-15 12:33N 43°57' E 008°50'1414.4
2014-Oct-15 11:33N 44°10' E 008°40'12 1.6
2014-Oct-15 04:05N 44°19' E 008°29'0 0.0
2014-Oct-15 03:08N 44°19' E 008°29'  

Dump ship's entire track history